GW2041 Weather Reports


time (UTC)temp
C
wind
direction
speed
KPH
gust
KPH
rain 1hr
cm
rain 24hr
cm
rain mn
cm
humidity
%
barometer
mb
20260506124242 9 68 4.8 11.3 0.00 0.00 0.61 93 1007.0
20260506123242 9 0 3.2 4.8 0.00 0.00 0.61 93 1006.6
20260506122240 9 293 3.2 11.3 0.00 0.00 0.61 93 1006.6
20260506121240 8 338 3.2 14.5 0.00 0.00 0.61 93 1006.8
20260506120246 8 45 1.6 14.5 0.00 0.00 0.61 93 1006.8
20260506115717 9 23 3.2 6.4 0.00 0.00 0.61 94 1006.7
20260506114240 9 23 1.6 4.8 0.00 0.00 0.61 94 1006.7
20260506113232 9 45 3.2 4.8 0.00 0.00 0.61 95 1006.5
20260506112703 9 23 1.6 4.8 0.00 0.00 0.61 95 1006.5
20260506111226 9 180 1.6 3.2 0.00 0.00 0.61 95 1006.6
20260506110233 9 68 3.2 9.7 0.00 0.00 0.61 95 1006.6
20260506105227 8 90 3.2 8.0 0.00 0.00 0.61 96 1006.5
20260506104225 9 270 1.6 8.0 0.00 0.00 0.61 96 1006.5
20260506103223 8 0 1.6 0.0 0.00 0.00 0.56 96 1006.1
20260506101325 8 0 1.6 3.2 0.00 0.20 0.56 96 1006.1
20260506100326 8 270 1.6 4.8 0.00 0.20 0.56 96 1006.1
20260506095323 8 23 1.6 4.8 0.00 0.20 0.56 96 1006.1
20260506094312 8 315 3.2 6.4 0.00 0.20 0.56 96 1006.1
20260506093749 8 23 3.2 6.4 0.00 0.20 0.56 96 1006.0
20260506092310 8 45 1.6 8.0 0.00 0.20 0.56 96 1006.0
20260506091311 8 0 0.0 6.4 0.00 0.20 0.56 97 1005.8
20260506090313 8 68 1.6 6.4 0.08 0.20 0.56 97 1005.8
20260506085314 8 45 1.6 6.4 0.08 0.20 0.56 96 1005.6
20260506084312 8 68 0.0 6.4 0.08 0.20 0.56 97 1005.6
20260506083258 8 23 1.6 8.0 0.08 0.20 0.56 97 1005.7
20260506082257 8 0 0.0 6.4 0.08 0.20 0.56 97 1005.7
20260506081258 8 23 1.6 6.4 0.08 0.20 0.56 97 1005.3
20260506080256 8 23 0.0 3.2 0.00 0.15 0.48 97 1005.3
20260506073258 7 315 0.0 0.0 0.08 0.15 0.48 97 1005.1
20260506072253 7 68 1.6 6.4 0.08 0.15 0.48 97 1005.1
20260506071249 7 315 1.6 6.4 0.08 0.15 0.48 97 1004.9
20260506070736 7 45 3.2 11.3 0.15 0.15 0.48 97 1004.9
20260506062246 7 45 1.6 4.8 0.08 0.08 0.41 97 1004.8
20260506061246 7 23 1.6 8.0 0.08 0.08 0.41 97 1004.6
20260506060243 7 315 1.6 6.4 0.00 0.00 0.41 97 1004.6
20260506051235 8 23 0.0 4.8 0.00 0.00 0.33 96 1004.4
20260506050714 8 90 0.0 0.0 0.00 0.00 0.33 97 1004.4
20260506044226 8 0 0.0 0.0 0.00 0.00 0.33 96 1004.3
20260506043334 8 0 0.0 1.6 0.08 0.33 0.33 96 1004.6
20260506042330 8 45 0.0 0.0 0.08 0.33 0.33 96 1004.6
20260506041802 8 23 0.0 3.2 0.08 0.33 0.33 96 1004.6
20260506040321 8 23 0.0 3.2 0.00 0.28 0.28 96 1004.6
20260506035315 8 23 0.0 0.0 0.08 0.28 0.28 96 1004.8
20260506034315 8 0 0.0 3.2 0.08 0.28 0.28 96 1004.8
20260506033319 8 315 0.0 3.2 0.08 0.28 0.28 96 1004.9
20260506032750 8 0 0.0 0.0 0.08 0.28 0.28 96 1004.9
20260506031304 8 23 0.0 1.6 0.15 0.28 0.28 96 1005.0
20260506030305 8 45 0.0 0.0 0.15 0.28 0.28 96 1005.0
20260506025305 8 23 0.0 3.2 0.08 0.20 0.20 96 1005.1
20260506024301 8 45 0.0 4.8 0.08 0.20 0.20 96 1005.1
20260506023302 8 338 0.0 4.8 0.08 0.20 0.20 96 1005.4
20260506022305 8 0 0.0 1.6 0.08 0.20 0.20 96 1005.4
20260506020737 8 68 0.0 3.2 0.05 0.13 0.13 95 1005.5
20260506015250 8 338 0.0 3.2 0.13 0.13 0.13 95 1005.7
20260506014721 8 45 0.0 4.8 0.13 0.13 0.13 95 1005.7
20260506013247 8 315 0.0 3.2 0.13 0.13 0.13 95 1005.8
20260506012731 8 68 0.0 6.4 0.13 0.13 0.13 95 1005.8
20260506011247 8 45 0.0 4.8 0.08 0.08 0.08 95 1005.8
20260506010249 8 45 0.0 4.8 0.08 0.08 0.08 94 1005.8
20260506005726 8 23 0.0 3.2 0.00 0.00 0.00 94 1006.2
20260506004248 8 23 0.0 0.0 0.00 0.00 0.00 94 1006.2
20260506003249 8 23 0.0 1.6 0.00 0.00 0.00 94 1006.4
20260506002247 8 23 0.0 1.6 0.00 0.00 0.00 94 1006.4
20260506001247 8 23 0.0 4.8 0.00 0.00 0.00 93 1006.6
20260506000717 8 45 0.0 4.8 0.00 0.00 0.00 93 1006.6
20260505235234 8 113 0.0 3.2 0.00 0.00 0.00 93 1006.9
20260505234234 8 113 1.6 4.8 0.00 0.00 0.00 93 1006.9
20260505233235 8 180 0.0 3.2 0.00 0.00 0.00 93 1007.0
20260505232222 8 135 0.0 3.2 0.00 0.00 0.00 92 1007.0
20260505231707 8 180 0.0 3.2 0.00 0.00 0.00 92 1007.5
20260505230222 8 315 0.0 0.0 0.00 0.00 0.00 92 1007.5
20260505225221 8 315 1.6 3.2 0.00 0.00 0.00 92 1007.8
20260505224709 8 23 1.6 3.2 0.00 0.00 0.00 91 1007.8
20260505223216 8 135 0.0 3.2 0.00 0.00 0.00 91 1007.8
20260505222212 8 90 1.6 8.0 0.00 0.00 0.00 91 1007.8
20260505221208 9 0 1.6 3.2 0.00 0.00 0.00 90 1007.9
20260505220207 9 293 1.6 0.0 0.00 0.00 0.00 89 1007.9
20260505215322 9 23 3.2 11.3 0.00 0.00 0.89 90 1008.1
20260505214320 9 158 1.6 4.8 0.00 0.00 0.89 90 1008.1
20260505213320 9 293 1.6 4.8 0.00 0.00 0.89 89 1008.2
20260505212312 9 68 1.6 4.8 0.00 0.00 0.89 89 1008.2
20260505211308 10 338 1.6 6.4 0.00 0.00 0.89 88 1008.3
20260505210308 10 23 1.6 6.4 0.00 0.00 0.89 88 1008.3
20260505205308 10 23 1.6 3.2 0.00 0.00 0.89 88 1008.3
20260505204309 10 315 1.6 6.4 0.00 0.00 0.89 88 1008.3
20260505202307 10 158 0.0 3.2 0.00 0.00 0.89 88 1008.3
20260505200307 10 225 0.0 4.8 0.00 0.00 0.89 87 1008.2
20260505195306 10 248 0.0 4.8 0.00 0.00 0.89 87 1008.2
20260505193306 10 23 0.0 6.4 0.00 0.00 0.89 87 1008.0
20260505192307 10 293 0.0 0.0 0.00 0.00 0.89 87 1008.0
20260505191745 11 45 0.0 4.8 0.00 0.00 0.89 87 1007.9
20260505190737 10 23 0.0 3.2 0.00 0.00 0.89 87 1007.9
20260505185254 11 23 0.0 3.2 0.00 0.00 0.89 87 1008.0
20260505184735 11 23 0.0 3.2 0.00 0.00 0.89 87 1008.0
20260505183253 11 23 0.0 3.2 0.00 0.00 0.89 88 1008.1
20260505182255 11 23 0.0 3.2 0.00 0.00 0.89 88 1008.1
20260505181253 11 23 0.0 0.0 0.00 0.00 0.89 88 1007.8
20260505180253 11 293 0.0 0.0 0.00 0.00 0.89 88 1007.8
20260505175252 11 315 0.0 3.2 0.00 0.00 0.89 88 1007.8
20260505174239 11 338 0.0 3.2 0.00 0.00 0.89 88 1007.8
20260505172241 11 23 0.0 3.2 0.00 0.00 0.89 88 1008.1
20260505171241 11 270 0.0 1.6 0.00 0.00 0.89 89 1008.0
20260505170239 11 23 0.0 0.0 0.00 0.00 0.89 89 1008.0
20260505165240 11 45 0.0 1.6 0.00 0.00 0.89 89 1008.0
20260505164223 11 45 0.0 0.0 0.00 0.00 0.89 88 1008.0
20260505163212 11 23 0.0 3.2 0.00 0.00 0.89 89 1008.3
20260505162209 11 23 0.0 3.2 0.00 0.00 0.89 89 1008.3
20260505161208 11 23 0.0 0.0 0.00 0.00 0.89 89 1008.2
20260505160222 11 338 0.0 0.0 0.00 0.00 0.89 89 1008.2
20260505153206 11 315 1.6 0.0 0.00 0.00 0.89 89 1008.3
20260505152253 11 338 0.0 3.2 0.00 0.00 0.89 89 1008.3
20260505151255 11 45 0.0 4.8 0.00 0.00 0.89 89 1008.1
20260505150739 11 315 1.6 4.8 0.00 0.00 0.89 89 1008.1
20260505140229 11 23 1.6 9.7 0.00 0.00 0.89 89 1008.3